Fresno, CA

5:01 AM PST on November 12, 2019 (GMT -0800)
Fresno Yosemite International

Weather History for KFAT - October, 2019

Change the Weather History Date:

Wednesday, October 16, 2019

  Actual Average Record
Temperature  
Mean Temperature 68 °F 66 °F  
Max Temperature 82 °F 80 °F 96 °F (1961)
Min Temperature 53 °F 53 °F 36 °F (1966)
Degree Days  
Heating Degree Days 0    
Month to date heating degree days 7  
Since 1 July heating degree days 13  
Cooling Degree Days 3    
Month to date cooling degree days 43  
Year to date cooling degree days 2363  
Growing Degree Days 18 (Base 50)    
Moisture  
Dew Point 42 °F    
Average Humidity 42    
Maximum Humidity 64    
Minimum Humidity 20    
Precipitation  
Precipitation 0.00 in 0.02 in 0.42 in (1963)
Month to date precipitation 0.00 0.22  
Year to date precipitation 9.52 8.25  
Snow  
Snow 0.00 in - - ()
Month to date snowfall 0.0  
Since 1 July snowfall 0.0  
Since 1 September snowfall 0.0  
Snow Depth 0.00 in    
Sea Level Pressure  
Sea Level Pressure 29.92 in    
Wind  
Wind Speed 4 mph (NW)    
Max Wind Speed 14 mph    
Max Gust Speed 18 mph    
Visibility 8 miles    
Events      
T = Trace of Precipitation, MM = Missing Value Source: NWS Daily Summary

Daily Weather History Graph

Daily Weather History Graph

Search for Another Location

Airport or City:

Astronomy

Oct. 16, 2019 Rise Set
Actual Time 7:07 AM PDT 6:21 PM PDT
Civil Twilight 6:41 AM PDT 6:47 PM PDT
Nautical Twilight 6:10 AM PDT 7:17 PM PDT
Astronomical Twilight 5:40 AM PDT 7:47 PM PDT
Moon 8:21 PM PDT (10/16) 9:39 AM PDT (10/16)
Length of Visible Light 12h 06m
Length of Day
11h 14m
Waning Gibbous, 92% of the Moon is Illuminated
Oct 16
Waning Gibbous
Oct 21
Last Quarter
Oct 27
New
Nov 4
First Quarter
Nov 12
Full

Hourly Weather History & Observations

Time (PDT) Temp. Dew Point Humidity Pressure Visibility Wind Dir Wind Speed Gust Speed Precip Events Conditions
12:53 AM 59.0 °F 42.1 °F 53% 30.02 in 10.0 mi SE 3.5 mph - N/A   Clear
1:53 AM 59.0 °F 43.0 °F 55% 30.02 in 9.0 mi East 3.5 mph - N/A   Clear
2:53 AM 57.0 °F 43.0 °F 59% 30.01 in 9.0 mi SE 4.6 mph - N/A   Clear
3:53 AM 55.0 °F 43.0 °F 64% 30.01 in 8.0 mi Calm Calm - N/A   Clear
4:53 AM 55.9 °F 42.1 °F 60% 30.00 in 8.0 mi East 6.9 mph - N/A   Clear
5:53 AM 53.1 °F 41.0 °F 64% 29.99 in 9.0 mi Calm Calm - N/A   Clear
6:53 AM 55.0 °F 42.1 °F 62% 29.99 in 7.0 mi Calm Calm - N/A   Scattered Clouds
7:53 AM 55.0 °F 41.0 °F 59% 30.01 in 6.0 mi Calm Calm - N/A   Haze
8:53 AM 60.1 °F 37.9 °F 44% 30.01 in 10.0 mi ENE 4.6 mph - N/A   Overcast
9:53 AM 66.0 °F 39.0 °F 37% 30.01 in 8.0 mi SSE 3.5 mph - N/A   Overcast
10:53 AM 70.0 °F 39.0 °F 32% 29.99 in 8.0 mi South 3.5 mph - N/A   Overcast
11:53 AM 73.0 °F 39.9 °F 30% 29.96 in 8.0 mi Variable 3.5 mph - N/A   Overcast
12:53 PM 77.0 °F 39.0 °F 25% 29.94 in 8.0 mi Calm Calm - N/A   Mostly Cloudy
1:53 PM 80.1 °F 37.0 °F 21% 29.90 in 9.0 mi Calm Calm - N/A   Overcast
2:53 PM 81.0 °F 36.0 °F 20% 29.86 in 9.0 mi Calm Calm - N/A   Overcast
3:53 PM 82.0 °F 37.9 °F 21% 29.85 in 9.0 mi WNW 10.4 mph - N/A   Overcast
4:53 PM 80.1 °F 41.0 °F 25% 29.83 in 8.0 mi NNW 6.9 mph - N/A   Overcast
5:53 PM 75.9 °F 44.1 °F 32% 29.82 in 8.0 mi NW 9.2 mph - N/A   Overcast
6:53 PM 73.9 °F 43.0 °F 33% 29.83 in 9.0 mi WNW 5.8 mph - N/A   Overcast
7:53 PM 72.0 °F 44.1 °F 37% 29.83 in 8.0 mi West 5.8 mph - N/A   Overcast
8:53 PM 69.1 °F 46.0 °F 44% 29.83 in 8.0 mi NW 5.8 mph - N/A   Overcast
9:53 PM 68.0 °F 45.0 °F 43% 29.84 in 9.0 mi NW 4.6 mph - N/A   Overcast
10:53 PM 64.9 °F 45.0 °F 48% 29.84 in 9.0 mi West 3.5 mph - N/A   Scattered Clouds
11:53 PM 63.0 °F 45.0 °F 52% 29.84 in 9.0 mi Calm Calm - N/A   Mostly Cloudy